Regional Weather Roundup
Issued by NWS

Home | Current Version | Previous Version | Text Only | Print | Product List | Glossary On
Versions: 1 2 3 4 5 6 7 8 9 10 11 12 13 14 15 16 17 18 19 20 21 22 23 24 25 26 27
000
ASPQ40 PGUM 171012
RWRPQ
WEATHER ROUNDUP FOR THE MARIANAS AND MICRONESIA
NATIONAL WEATHER SERVICE TIYAN GU
800 PM CHST SUN DEC 17 2017

GUZ001>004-171100-
MARIANA ISLANDS-

CITY           SKY/WX    TMP DP  RH WIND       PRES   REMARKS
GUAM AIRPORT   PTCLDY    82  75  78 E10       29.88R
ANDERSEN AFB   PTCLDY    81  73  78 E17       29.89R
ROTA AIRPORT   PTCLDY    81  73  78 E14       29.88R
TINIAN AP      NOT AVBL
SAIPAN AP      PTCLDY    82  77  83 E12       29.89R HX  91

$$

PMZ161-171100-
REPUBLIC OF PALAU-

CITY           SKY/WX    TMP DP  RH WIND       PRES   REMARKS
KOROR AP       CLOUDY    79  75  89 CALM      29.80R
KOROR WSO      MOCLDY    81  77  89 CALM      29.81R

$$

PMZ171>174-171100-
FEDERATED STATES OF MICRONESIA-

CITY           SKY/WX    TMP DP  RH WIND       PRES   REMARKS
YAP AIRPORT    CLOUDY    81  75  83 VRB6      29.78S
CHUUK AP       CLOUDY    82  77  83 VRB5      29.81R HX  91
POHNPEI AP     PTCLDY    79  77  94 SE3       29.81R
POHNPEI WSO    MOCLDY    77  75  94 VRB2      29.85R
KOSRAE AP      NOT AVBL

$$

PMZ181-171100-
REPUBLIC OF THE MARSHALL ISLANDS-

CITY           SKY/WX    TMP DP  RH WIND       PRES   REMARKS
KWAJALEIN AP   CLOUDY    81  75  83 E21       29.82S
MAJURO AP      NOT AVBL
MAJURO WSO     MOCLDY    82  75  78 E16       29.79R

$$





USA.gov is the U.S. government's official web portal to all federal, state and local government web resources and services.